Wind_Speed
8 10 12 13 14 15 15 15 15 18 21 25 26 27 28 30 32 34 36 39 41 42 44 44 44 44 44 44 43 43 43 42 43 43 43 44 45 46 47 47 47 47 47 47
9 10 12 13 15 17 17 18 19 21 24 26 27 28 29 30 32 35 37 39 42 44 45 45 45 45 45 44 44 43 43 43 43 43 44 45 46 46 46 46 46 46 46 45
9 10 11 15 16 19 20 21 22 24 26 27 27 29 29 30 32 35 38 41 44 45 46 46 46 46 45 45 44 43 43 43 44 44 44 45 45 46 46 45 45 44 43 42
12 10 13 16 19 20 23 24 24 25 27 28 29 31 31 31 34 37 40 43 45 46 46 47 47 46 46 45 44 44 43 43 44 44 44 44 45 46 45 44 43 41 40 39
14 12 13 18 22 20 23 25 23 24 25 27 28 31 34 34 37 40 42 44 46 47 47 47 47 47 46 45 45 44 44 44 44 44 44 44 45 45 44 42 40 38 36 35
16 15 14 18 22 21 24 28 24 26 27 28 29 30 33 36 38 40 42 45 46 46 48 48 48 47 46 45 45 44 44 44 44 44 44 44 44 44 42 40 37 35 33 32
19 18 18 23 23 24 26 27 28 29 29 29 30 31 33 35 38 41 43 45 46 47 48 49 48 47 46 45 45 45 44 44 44 44 44 43 43 43 40 38 36 33 32 30
21 20 22 26 27 27 26 26 27 28 28 29 30 32 34 37 39 41 43 45 46 46 48 48 48 47 46 45 45 44 44 44 44 43 43 43 43 41 38 37 34 32 30 28
21 23 27 28 28 28 27 27 27 27 28 29 31 33 35 38 40 42 44 44 45 46 47 48 48 48 46 45 45 44 43 44 43 43 43 43 41 39 37 35 33 31 28 26
24 23 26 28 28 28 27 27 27 27 29 30 32 34 36 39 41 42 44 44 44 45 46 47 48 47 46 45 44 44 43 43 43 42 42 42 40 39 37 34 32 28 25 23
28 27 27 26 27 27 27 27 27 28 30 31 33 35 38 40 42 42 43 43 43 44 46 47 47 47 46 45 44 43 42 42 42 42 42 41 39 38 37 33 30 26 23 21
27 27 28 27 27 27 27 27 28 29 31 33 35 37 38 40 41 42 42 42 43 44 45 46 47 47 46 44 43 42 41 41 41 41 40 40 38 36 35 32 28 24 22 19
28 26 26 27 27 28 28 29 30 31 32 34 37 38 40 40 41 41 41 41 42 43 44 45 46 46 45 44 43 42 41 40 40 40 39 38 37 35 33 30 27 24 20 17
28 27 25 26 27 29 30 31 33 34 35 36 38 39 40 41 41 41 41 41 42 43 44 45 46 46 45 43 42 40 39 39 39 38 38 37 36 34 31 29 26 23 20 16
29 29 29 29 29 31 32 34 35 37 39 39 40 40 41 41 41 41 40 40 41 42 43 45 45 45 44 42 41 39 38 37 37 37 37 36 35 33 31 28 26 23 19 15
31 32 33 34 34 35 36 37 38 40 41 42 41 41 41 41 41 40 40 40 41 42 43 44 44 44 42 41 39 38 36 35 35 35 36 36 34 32 30 27 25 22 18 14
35 35 36 37 38 39 39 40 41 42 43 43 42 42 41 41 40 40 40 40 41 42 42 42 43 42 41 40 38 37 35 33 33 33 34 34 33 31 29 27 24 22 18 14
38 39 40 41 41 42 43 43 43 44 43 43 43 42 41 40 40 40 40 40 40 41 41 41 41 41 40 38 37 35 33 32 31 31 32 32 32 30 28 26 24 21 18 14
41 42 42 43 44 44 44 44 44 44 43 43 42 42 41 41 40 40 40 39 39 39 39 40 40 39 38 37 35 33 32 30 29 28 29 30 30 29 28 26 24 21 19 16
43 44 44 44 45 45 45 45 44 44 43 43 42 42 42 41 40 40 39 39 38 38 38 38 37 37 36 35 33 32 30 28 27 26 26 27 28 27 26 25 23 21 19 16
46 46 47 47 47 47 47 46 45 44 44 43 44 44 43 42 40 38 38 38 37 37 36 35 35 35 34 33 32 30 28 26 25 24 24 24 25 24 24 24 22 20 19 17
50 50 50 50 50 50 49 48 47 47 46 45 45 45 44 42 40 39 38 37 36 35 34 33 34 34 33 32 30 28 26 24 23 21 21 21 22 22 21 21 21 20 19 18
54 54 54 53 53 52 52 51 51 50 48 48 47 46 45 43 42 41 39 37 35 33 33 32 32 32 31 30 28 26 24 22 21 19 18 17 18 18 18 19 19 20 19 18
58 58 58 57 56 55 55 55 54 53 51 50 49 48 46 45 43 40 38 36 34 33 31 31 31 30 29 28 27 25 23 21 19 17 15 14 14 14 15 15 16 17 18 18
61 61 60 59 59 57 57 56 55 54 52 51 49 48 46 44 42 40 38 36 34 32 31 30 29 28 27 26 25 23 21 19 17 15 13 12 11 11 11 12 12 14 15 16
61 61 60 59 58 57 56 55 54 54 53 51 49 48 45 43 41 41 39 36 33 32 31 29 27 26 25 24 23 22 20 17 15 13 11 10 8 8 8 8 9 10 11 12
61 59 58 57 56 55 54 52 51 50 49 48 47 45 44 42 41 39 37 36 34 31 29 28 25 24 24 23 22 21 19 16 14 12 10 8 7 6 5 5 5 6 6 7
Wind_Direction
294 295 299 303 306 308 310 310 309 307 308 309 318 320 323 325 327 330 332 332 332 332 333 332 331 329 328 326 324 321 318 315 314 312 311 309 308 307 305 303 300 297 294 290
300 297 301 309 308 310 312 313 313 313 312 315 321 321 325 327 328 331 332 332 333 334 334 334 333 331 329 328 325 322 320 318 317 315 313 312 311 310 308 306 303 300 297 293
303 298 307 305 300 305 311 312 312 313 314 318 320 321 325 328 328 330 333 335 336 336 335 335 334 333 331 329 327 325 323 321 320 318 317 316 315 314 312 310 307 304 301 296
306 300 304 300 302 304 307 308 311 313 315 319 321 322 326 329 330 334 336 338 337 337 336 336 335 334 333 331 329 328 326 324 323 322 321 320 319 318 316 313 311 307 303 299
310 303 301 299 300 304 306 306 312 312 315 318 322 322 325 331 334 336 337 338 338 338 338 337 337 336 334 333 332 330 329 327 326 325 324 324 323 322 320 318 314 311 307 303
312 310 303 293 297 308 309 308 317 316 320 322 323 324 326 331 334 335 336 337 338 338 339 339 338 337 336 335 334 332 331 330 330 329 328 327 326 325 323 321 317 314 311 307
314 315 306 298 305 305 304 309 313 316 319 320 321 324 327 329 332 334 336 337 338 338 339 340 340 339 338 337 336 334 333 333 333 332 331 330 330 329 327 325 321 317 315 310
301 300 290 298 303 302 304 306 308 312 316 319 321 324 327 329 331 334 335 337 338 339 340 340 341 340 339 338 337 336 336 336 336 335 335 334 333 333 331 328 325 321 319 315
295 294 294 298 301 302 304 306 308 312 316 319 321 324 327 329 331 333 334 336 337 339 340 341 341 341 340 340 339 338 338 338 339 338 338 338 337 337 335 332 329 326 323 321
299 295 292 297 300 302 304 306 309 312 315 318 321 324 326 328 331 332 334 335 336 338 340 341 342 342 341 341 341 340 340 341 341 341 342 341 341 340 338 336 334 332 330 328
299 300 298 298 299 302 304 307 310 312 314 317 320 323 326 328 331 332 333 335 336 338 340 341 342 342 342 342 342 341 342 343 343 344 344 345 344 343 343 341 340 338 337 336
296 299 300 300 301 303 305 307 309 312 314 316 319 322 325 328 330 332 333 334 336 338 340 341 342 343 343 342 343 343 343 344 345 347 347 348 348 347 347 347 346 345 343 344
297 300 299 300 302 304 306 307 308 310 312 315 318 321 324 326 329 331 332 334 336 338 339 341 342 343 343 343 343 343 344 346 347 349 350 351 352 352 352 353 351 350 349 349
296 298 298 298 299 301 302 304 306 309 311 314 317 320 323 325 328 331 332 333 336 338 339 341 342 343 344 343 343 343 345 347 349 351 353 354 355 356 357 358 358 357 357 359
293 295 297 298 298 298 299 302 305 308 311 314 317 320 322 324 326 329 331 332 334 336 338 340 341 343 343 343 343 344 345 347 349 353 354 356 357 358 360 0 2 3 4 6
290 292 294 295 297 298 299 302 305 307 310 313 316 318 320 322 324 326 328 330 332 334 336 338 340 342 343 343 343 344 345 346 350 352 354 356 358 359 2 3 4 6 9 12
289 290 291 293 295 297 299 301 303 306 308 311 313 315 317 319 321 323 326 328 330 332 334 336 338 340 342 343 343 344 345 346 349 353 354 357 359 1 4 5 5 6 10 14
288 289 290 291 293 296 298 300 301 303 305 307 309 311 314 316 318 320 322 325 327 330 332 334 337 339 341 343 343 344 345 346 349 352 355 358 1 3 5 6 8 10 12 15
287 287 289 291 292 294 295 296 297 299 302 303 305 307 309 312 314 316 319 321 324 327 330 333 335 337 340 342 342 343 344 346 348 351 355 359 2 5 7 8 10 13 17 20
284 285 286 288 290 291 292 293 294 296 298 299 302 303 305 307 310 313 315 318 321 324 327 330 333 336 338 340 341 342 343 344 346 350 355 359 2 6 9 10 13 16 20 22
282 283 284 285 286 287 288 289 291 292 294 295 297 298 300 303 305 309 312 314 317 320 324 327 331 334 336 338 340 340 341 342 344 348 353 358 3 6 11 14 16 19 23 26
281 282 282 284 284 285 285 286 287 288 289 289 290 293 295 297 301 304 307 309 312 316 319 323 327 331 334 336 337 338 339 339 342 345 350 355 360 4 10 16 21 24 27 30
281 281 282 282 283 283 283 284 284 284 284 285 286 288 291 294 298 301 303 305 307 310 314 319 323 327 330 332 334 335 336 336 338 342 346 351 358 4 10 17 22 25 29 33
280 280 281 281 282 282 282 282 282 283 283 283 285 286 288 290 293 296 297 299 302 305 310 315 319 322 325 328 330 331 332 332 333 337 342 347 354 2 10 18 24 29 33 37
279 280 281 281 282 282 282 282 282 282 282 282 283 284 284 285 286 289 291 292 295 299 304 310 314 317 320 324 326 327 328 328 329 331 336 340 346 356 6 16 23 30 35 39
279 280 280 281 281 281 281 281 280 281 281 281 281 281 281 281 282 284 285 286 289 293 298 303 308 312 316 320 322 323 323 323 322 322 324 329 336 346 358 11 24 30 37 42
280 280 280 280 280 281 281 281 281 281 281 280 280 279 278 278 278 278 279 281 284 288 292 296 301 306 312 316 318 318 318 316 314 311 310 310 313 322 340 355 10 24 37 46
Height
5858 5857 5856 5854 5853 5850 5848 5845 5843 5841 5837 5832 5829 5824 5820 5815 5809 5803 5796 5789 5781 5773 5765 5756 5748 5739 5731 5723 5715 5707 5700 5693 5687 5680 5673 5667 5660 5654 5647 5640 5634 5628 5623 5619
5855 5854 5853 5852 5850 5847 5845 5842 5839 5837 5833 5828 5824 5819 5815 5810 5804 5798 5791 5783 5775 5766 5758 5749 5740 5731 5723 5714 5706 5699 5691 5684 5676 5669 5662 5655 5648 5640 5633 5625 5618 5612 5606 5601
5853 5852 5850 5849 5847 5844 5842 5839 5836 5832 5829 5824 5820 5815 5811 5806 5799 5793 5785 5777 5768 5759 5750 5741 5732 5723 5715 5706 5698 5690 5682 5675 5667 5659 5651 5643 5635 5627 5619 5611 5604 5597 5591 5585
5850 5849 5847 5847 5843 5841 5838 5835 5832 5828 5824 5819 5815 5809 5805 5801 5794 5787 5779 5770 5762 5753 5744 5735 5725 5716 5707 5698 5690 5682 5674 5666 5657 5649 5641 5632 5623 5615 5606 5598 5590 5583 5577 5571
5847 5845 5845 5842 5839 5837 5834 5830 5828 5824 5820 5815 5811 5804 5798 5794 5787 5780 5772 5764 5756 5746 5737 5728 5719 5709 5700 5691 5682 5674 5665 5657 5648 5639 5631 5622 5613 5603 5594 5586 5578 5571 5564 5558
5843 5842 5840 5839 5835 5833 5830 5825 5823 5818 5814 5810 5806 5801 5795 5788 5781 5775 5767 5758 5750 5740 5731 5722 5712 5703 5693 5684 5675 5667 5658 5649 5640 5630 5621 5612 5603 5593 5584 5576 5568 5561 5554 5548
5840 5838 5837 5832 5831 5829 5826 5823 5818 5813 5809 5805 5801 5796 5790 5783 5776 5769 5761 5752 5744 5734 5725 5716 5706 5697 5687 5678 5669 5660 5651 5642 5632 5623 5613 5604 5595 5585 5575 5567 5559 5552 5545 5539
5837 5835 5834 5828 5826 5823 5821 5817 5813 5809 5805 5800 5795 5790 5784 5778 5771 5763 5755 5747 5738 5729 5720 5710 5701 5691 5682 5672 5663 5654 5645 5635 5626 5616 5606 5597 5587 5577 5568 5559 5551 5544 5538 5532
5833 5832 5827 5823 5820 5817 5814 5811 5807 5803 5799 5795 5790 5784 5778 5772 5765 5758 5750 5741 5733 5724 5715 5705 5695 5686 5676 5667 5658 5648 5639 5630 5620 5610 5600 5591 5581 5571 5562 5553 5545 5538 5532 5526
5827 5825 5821 5818 5814 5811 5808 5805 5802 5798 5794 5789 5784 5779 5773 5766 5759 5752 5744 5736 5727 5719 5710 5700 5691 5681 5671 5662 5653 5644 5634 5625 5615 5606 5596 5586 5576 5566 5557 5549 5541 5534 5527 5521
5820 5818 5815 5812 5809 5806 5802 5799 5796 5792 5788 5783 5778 5773 5767 5760 5753 5746 5738 5730 5722 5714 5705 5696 5686 5676 5667 5657 5648 5639 5630 5621 5612 5602 5592 5582 5572 5563 5553 5545 5537 5530 5525 5519
5815 5812 5809 5806 5803 5800 5797 5794 5790 5786 5782 5777 5772 5767 5761 5754 5747 5740 5732 5725 5717 5708 5700 5691 5681 5672 5663 5653 5644 5636 5627 5618 5608 5599 5589 5579 5570 5560 5551 5543 5535 5529 5523 5518
5808 5805 5803 5800 5797 5794 5791 5787 5784 5780 5776 5771 5766 5760 5754 5748 5741 5734 5727 5719 5712 5704 5695 5686 5677 5668 5659 5650 5641 5632 5624 5615 5606 5596 5587 5577 5568 5559 5551 5543 5535 5529 5523 5518
5801 5799 5797 5794 5791 5788 5784 5781 5777 5773 5769 5764 5759 5753 5747 5741 5735 5728 5721 5714 5707 5699 5691 5682 5673 5664 5655 5646 5638 5629 5621 5613 5604 5595 5586 5577 5568 5559 5551 5543 5536 5530 5524 5520
5794 5792 5789 5787 5784 5781 5777 5774 5770 5765 5761 5756 5751 5746 5740 5734 5728 5722 5716 5709 5702 5694 5686 5678 5669 5660 5652 5643 5635 5627 5619 5611 5603 5594 5585 5577 5568 5560 5552 5544 5537 5531 5527 5522
5787 5784 5781 5779 5776 5773 5769 5765 5762 5757 5752 5748 5743 5738 5733 5727 5721 5716 5709 5703 5697 5690 5682 5674 5666 5657 5649 5640 5632 5624 5617 5609 5602 5594 5586 5577 5569 5561 5553 5546 5540 5534 5529 5526
5778 5775 5773 5770 5767 5763 5760 5756 5752 5748 5743 5739 5735 5730 5725 5720 5715 5709 5703 5697 5691 5685 5677 5670 5662 5654 5646 5637 5630 5622 5615 5608 5601 5593 5586 5578 5570 5562 5555 5548 5542 5537 5532 5529
5767 5765 5762 5759 5756 5753 5750 5746 5742 5738 5735 5730 5726 5722 5717 5713 5708 5703 5697 5692 5686 5679 5673 5666 5658 5650 5643 5635 5627 5620 5613 5607 5600 5594 5587 5579 5572 5564 5557 5551 5545 5540 5535 5532
5756 5753 5751 5748 5745 5742 5739 5736 5732 5729 5725 5721 5718 5714 5709 5705 5701 5696 5691 5686 5680 5674 5668 5661 5654 5647 5640 5632 5625 5618 5612 5606 5600 5594 5587 5581 5574 5567 5560 5554 5548 5543 5539 5535
5744 5742 5739 5737 5734 5731 5729 5725 5722 5719 5716 5712 5709 5705 5701 5697 5693 5688 5684 5679 5674 5669 5663 5657 5650 5643 5636 5630 5623 5617 5611 5605 5599 5594 5588 5582 5576 5569 5563 5557 5552 5547 5543 5539
5732 5730 5727 5725 5722 5720 5717 5714 5711 5708 5706 5702 5699 5695 5692 5688 5684 5680 5676 5672 5668 5663 5657 5652 5646 5640 5633 5627 5621 5615 5609 5604 5599 5594 5589 5583 5578 5572 5567 5561 5555 5550 5546 5543
5718 5716 5714 5711 5709 5706 5704 5702 5699 5697 5694 5692 5689 5685 5682 5678 5675 5672 5669 5665 5661 5656 5652 5647 5641 5636 5630 5624 5618 5613 5608 5603 5598 5594 5589 5585 5580 5575 5570 5565 5560 5555 5551 5547
5702 5700 5698 5696 5694 5692 5690 5687 5685 5683 5681 5679 5676 5674 5671 5668 5665 5663 5660 5657 5653 5649 5645 5641 5636 5631 5626 5620 5615 5610 5606 5601 5597 5593 5589 5585 5581 5577 5573 5568 5564 5560 5556 5552
5685 5683 5681 5679 5677 5675 5673 5671 5669 5667 5666 5665 5663 5661 5659 5657 5655 5653 5651 5648 5645 5642 5638 5635 5631 5626 5622 5617 5612 5608 5603 5599 5596 5592 5589 5586 5583 5579 5575 5572 5569 5565 5561 5558
5666 5664 5663 5661 5660 5658 5656 5654 5652 5651 5650 5649 5648 5647 5646 5645 5644 5642 5640 5639 5636 5633 5631 5628 5624 5620 5616 5613 5608 5604 5600 5597 5594 5591 5588 5586 5583 5580 5577 5575 5572 5569 5567 5564
5648 5646 5644 5643 5641 5640 5638 5637 5635 5635 5634 5634 5634 5633 5632 5632 5632 5631 5629 5628 5627 5625 5623 5620 5618 5615 5611 5608 5604 5600 5597 5594 5591 5589 5587 5585 5583 5581 5579 5577 5575 5573 5571 5568
5627 5626 5625 5624 5623 5622 5621 5620 5619 5618 5618 5618 5618 5618 5618 5618 5618 5618 5618 5617 5617 5616 5614 5612 5610 5608 5605 5602 5599 5596 5593 5591 5588 5586 5585 5584 5582 5581 5579 5578 5576 5575 5574 5572